Regional Weather Roundup
Issued by NWS New Orleans/Baton Rouge, LA

Home | Current Version | Previous Version | Text Only | Print | Product List | Glossary On
Versions: 1 2 3 4 5 6 7 8 9 10 11 12 13 14 15 16 17 18 19 20 21 22 23 24 25 26 27 28
000
ASUS44 KLIX 210013
RWRLIX
NEW ORLEANS REGIONAL WEATHER ROUNDUP
NATIONAL WEATHER SERVICE NEW ORLEANS LA
700 PM CDT SUN AUG 20 2017

NOTE: "FAIR" INDICATES FEW OR NO CLOUDS BELOW 12,000 FEET WITH NO
      SIGNIFICANT WEATHER AND/OR OBSTRUCTIONS TO VISIBILITY.
      SKY/WX - SKY CONDITION AND SIGNIFICANT WEATHER.
      TMP - AIR TEMPERATURE.     DP    - DEWPOINT TEMPERATURE.
      RH  - RELATIVE HUMIDITY.   PRES  - PRESSURE.
      HI  - HEAT INDEX.          WCI   - WIND CHILL INDEX.

*  THESE STATIONS ARE NOT NWS OR FAA STATIONS AND ARE NOT UNDER
   NWS QUALITY CONTROL.

LAZ038-040-048-061>063-065>067-069-210100-
SOUTHEAST LOUISIANA

CITY           SKY/WX    TMP DP  RH WIND       PRES   REMARKS
N.O. INTL ARPT PTCLDY    91  73  55 NE7       30.00R HX  99
6HR MIN TEMP:  91; 6HR MAX TEMP:  95;

N.O. LAKEFRONT CLEAR     91  73  55 E7        30.01R HX  99
6HR MIN TEMP:  90; 6HR MAX TEMP:  94;

N.O. DOWNTOWN*   N/A     92  71  50 S7        30.02R HX  98
6HR MIN TEMP:  90; 6HR MAX TEMP:  94;

RESERVE*         N/A     92  72  52 CALM      30.01R HX  99
6HR MIN TEMP:  92; 6HR MAX TEMP:  96;

SLIDELL        CLEAR     88  73  61 S5        30.00R HX  95
6HR MIN TEMP:  88; 6HR MAX TEMP:  94;

BATON ROUGE    CLEAR     89  74  60 E6        30.00R HX  98
6HR MIN TEMP:  89; 6HR MAX TEMP:  94;

BOOTHVILLE     CLEAR     88  78  72 E3        30.01R HX 101
6HR MIN TEMP:  88; 6HR MAX TEMP:  91;

BELLE CHASSE   NOT AVBL
BOGALUSA*        N/A     91  73  55 CALM      30.03R HX 100
6HR MIN TEMP:  91; 6HR MAX TEMP:  95;

GALLIANO*      CLEAR     87  74  65 CALM      30.01R HX  95
6HR MIN TEMP:  87; 6HR MAX TEMP:  92;

NEW ROADS*       N/A     87  78  73 CALM      30.01R HX  99
6HR MIN TEMP:  87; 6HR MAX TEMP:  92;

GONZALES*        N/A     91  71  53 CALM      30.00R HX  97
6HR MIN TEMP:  90; 6HR MAX TEMP:  94;

HAMMOND*       CLEAR     91  70  49 E5        30.01R HX  97
HOUMA*         PTCLDY    86  79  79 SE5       30.01R HX  99
PORT FOURCHON* CLEAR     88  75  66 SE8       30.01R HX  97

$$

MSZ070-080>082-210100-
SOUTHERN MISSISSIPPI

CITY           SKY/WX    TMP DP  RH WIND       PRES   REMARKS
MCCOMB         CLEAR     89  73  59 CALM      30.03R HX  97
6HR MIN TEMP:  89; 6HR MAX TEMP:  93;

GULFPORT       CLEAR     88  76  67 S3        30.01R HX  99
6HR MIN TEMP:  88; 6HR MAX TEMP:  93;

BILOXI         CLEAR     87  77  72 S5        30.01R HX  98
6HR MIN TEMP:  87; 6HR MAX TEMP:  91;

PASCAGOULA     CLEAR     87  76  69 CALM      30.01R HX  97
6HR MIN TEMP:  87; 6HR MAX TEMP:  94;

STENNIS ARPT*  PTCLDY    88  75  66 S5        30.01R HX  97

$$

COASTAL OBSERVATIONS
LAKE AND NEARSHORE STATIONS

STATION/POSITION TIME  TEMP    WIND        PRES    WAVE
                       AIR SEA DIR/SP/G            HT/PER
                 (UTC) (F)     (DEG/KT/KT) (MB)    (FT/S)
PASCAGOULA       2342   88     220/  4/  6 1015.9
WAVELAND YACHT   2342   87 87  170/  4/  6 1016.3
GRAND ISLE       2342   88 90  140/  5/  6 1016.4
SOUTHWEST PASS   2336          130/  5/  8   N/A
NEW CANAL        2342   90 89   70/  6/  7 1015.8
SHELL BEACH      2342   88 92  120/  7/  9 1016.3

OFFSHORE STATIONS

STATION/POSITION TIME  TEMP    WIND        PRES    WAVE
                       AIR SEA DIR/SP/G            HT/PER
                 (UTC) (F)     (DEG/KT/KT) (MB)    (FT/S)
64 S DAUPHIN ISL 2350   87 89  100/  6/  8 1016.2    1

$$





USA.gov is the U.S. government's official web portal to all federal, state and local government web resources and services.